Regional Weather Roundup
Issued by NWS Nashville, TN

Home | Current Version | Previous Version | Text Only | Print | Product List | Glossary On
Versions: 1 2 3 4 5 6 7 8 9 10 11 12 13 14 15 16 17 18 19 20 21 22 23 24 25 26 27 28 29 30 31 32 33 34 35 36 37 38 39 40 41 42 43 44 45 46 47 48 49 50
969
ASUS44 KOHX 240510
RWROHX
MIDDLE TENNESSEE HOURLY WEATHER ROUNDUP
NATIONAL WEATHER SERVICE NASHVILLE TN
1200 AM CDT WED AUG 24 2016

NOTE: "FAIR" INDICATES FEW OR NO CLOUDS BELOW 12,000 FEET WITH
NO SIGNIFICANT WEATHER AND/OR OBSTRUCTIONS TO VISIBILITY.

* THESE REPORTS ARE NOT UNDER NWS QUALITY CONTROL AND MAY NOT
  REPORT WEATHER SUCH AS PRECIPITATION AND FOG.


TNZ005>011-023>034-057-059-062>066-078-080-240600
...NORTHERN MIDDLE TENNESSEE...

CITY           SKY/WX    TMP DP  RH WIND       PRES   REMARKS
CLARKSVILLE    CLEAR     73  71  93 SE5       30.18F
CROSSVILLE     CLEAR     67  66  97 CALM      30.29F
NASHVILLE      PTCLDY    74  70  87 S3        30.20F
WEST NASHVILLE CLEAR     73  72  94 CALM      30.19F
SPARTA         CLEAR     68  68 100 CALM      30.23F
$$
TNZ056-058-060-061-075>077-079-093>097-240600
...SOUTHERN MIDDLE TENNESSEE...

CITY           SKY/WX    TMP DP  RH WIND       PRES   REMARKS
COLUMBIA       CLEAR    N/A N/A N/A CALM      30.19F
FAYETTEVILLE   PTCLDY    73  70  88 SE3       30.22F
MCMINNVILLE    CLEAR     70  70 100 CALM      30.24F
SHELBYVILLE    CLEAR     73  73 100 E3        30.23S
TULLAHOMA      CLEAR     70  68  94 CALM      30.24F
WINCHESTER     CLEAR     70  70 100 CALM      30.23F
$$


...KEY TO REMARKS...
VSB - VISIBILITY IN MILES
WCI - WIND CHILL INDEX
HX  - HEAT INDEX





USA.gov is the U.S. government's official web portal to all federal, state and local government web resources and services.